Regional Weather Roundup
Issued by NWS Charleston, SC

Current Version | Previous Version | Graphics & Text | Print | Product List | Glossary On
Versions: 1 2 3 4 5 6 7 8 9 10 11 12 13 14 15 16 17 18 19 20 21 22 23 24 25 26 27 28 29 30 31 32 33 34 35 36 37 38 39 40 41 42 43 44 45 46 47 48 49 50
000 ASUS42 KCHS 311412 RWRCHS REGIONAL WEATHER ROUNDUP NATIONAL WEATHER SERVICE CHARLESTON SC 1000 AM EDT FRI JUL 31 2015 NOTE: "FAIR" INDICATES FEW OR NO CLOUDS BELOW 12,000 FEET WITH NO SIGNIFICANT WEATHER AND/OR OBSTRUCTIONS TO VISIBILITY. NOT ALL STATIONS ARE QUALITY CONTROLLED BY THE NATIONAL WEATHER SERVICE. USE DATA WITH CAUTION...ESPECIALLY DEWPOINT OBSERVATIONS. SCZ027-030-031-034>040-042>050-311500- ...SOUTHEAST SOUTH CAROLINA... CITY SKY/WX TMP DP RH WIND PRES REMARKS N CHARLESTON PTSUNNY 86 75 69 NE10 29.93R HX 95 WATERFRONT PRK N/A 84 77 79 N5 29.91R HX 94 MOUNT PLEASANT N/A 84 77 79 CALM 29.94R HX 94 JOHNS ISLAND CLOUDY 84 77 79 CALM 29.95R HX 94 PINOPOLIS NOT AVBL MONCKS CORNER FAIR 82 72 69 E3 29.94R SUMMERVILLE FAIR 81 75 83 CALM 29.95R BEAUFORT MCAS PTSUNNY 85 76 74 NW3 29.93F HX 94 BEAUFORT ARPT FAIR 82 79 89 CALM 29.93S HX 93 HILTON HEAD IS TSTM 79 79 100 SW3 29.95S WALTERBORO MOSUNNY 82 75 78 NE7 29.94S ALLENDALE FAIR 82 77 83 VRB5 29.93F HX 91 ...SOUTHERN MIDLANDS AND PEE DEE... CITY SKY/WX TMP DP RH WIND PRES REMARKS GEORGETOWN NOT AVBL KINGSTREE NOT AVBL ORANGEBURG MOSUNNY 84 67 56 NE10 29.95R BARNWELL FAIR 86 72 62 NE10 29.96S HX 92 AIKEN PTSUNNY 82 61 47 NE14G21 30.00S MANNING FAIR 82 64 54 N7G16 29.94R COLUMBIA MOSUNNY 82 67 60 NE7 29.96S SUMTER PTSUNNY 84 62 47 NE12 29.94R FLORENCE SUNNY 85 66 53 NE13G20 29.94S MYRTLE BEACH PTSUNNY 82 73 74 N12 29.93 N MYRTLE BEACH PTSUNNY 85 75 72 N9 29.91F HX 93 $$ GAZ063-065-086>088-099>101-113>116-118-119-134>141-150-311500- ...SOUTHEAST GEORGIA... CITY SKY/WX TMP DP RH WIND PRES REMARKS SAVANNAH ARPT CLOUDY 82 76 81 SW5 29.94S HUNTER AAF PTSUNNY 82 79 89 W6 29.92S HX 92 FORT STEWART PTSUNNY 83 75 77 W5 29.92F STATESBORO MOSUNNY 82 82 100 W3 29.94F HX 97 SYLVANIA MOSUNNY 86 78 76 NE5 29.94F HX 99 CLAXTON PTSUNNY 82 77 83 NW3 29.94F HX 91 ...CSRA...CENTRAL AND FAR SOUTHEAST GEORGIA... CITY SKY/WX TMP DP RH WIND PRES REMARKS THOMSON SUNNY 86 73 64 NE10G22 30.01S HX 93 AUGUSTA-BUSH SUNNY 85 73 67 NE8 29.95S HX 91 AUGUSTA-DANIEL MOSUNNY 85 69 58 NE12 29.97S SWAINSBORO FAIR 86 81 84 CALM 29.96R HX 102 VIDALIA MOSUNNY 82 75 78 CALM 29.95S EASTMAN FAIR 83 80 90 CALM 29.97S HX 94 HAZLEHURST FAIR 83 78 86 CALM 29.94S HX 93 ALMA MOSUNNY 80 75 84 CALM 29.96S WAYCROSS CLOUDY 86 80 83 SW9 29.96S HX 101 JESUP FAIR 86 79 79 SW3 29.95F HX 99 BAXLEY FAIR 84 77 79 CALM 29.95S HX 94 BRUNSWICK PTSUNNY 82 77 83 SW9 29.96S HX 91 SAINT SIMONS CLOUDY 81 76 84 SW9 29.96R $$ SCZ027-028-034-036>038-045-046-048>050-GAZ119-141-311500- ...LAKE AND SUPPLEMENTAL COASTAL OBSERVATIONS... STATION/POSITION TIME TEMP WIND PRES WAVE SWELL AIR SEA DIR/SP/G HT/PER HT/PER/DIR (UTC) (F) (DEG/KT/KT) (MB) (FT/S) (FT/S/D) UPR LAKE MARION NOT AVBL WINYAH BAY NOT AVBL LAKE MURRAY 1300 80 30/ 5/ 8 1014.2R ACE BASIN NERRS NOT AVBL FORT PULASKI 1300 80 86 240/ 4/ 6 1014.5R SAPELO ISLAND 1300 81 240/ 7 1014.0S $$ ANZ835-935-AMZ111-154-330-350-352-354-370-450-454-472-311500- ...C-MAN AND BUOY OBSERVATIONS... STATION/POSITION TIME TEMP WIND PRES WAVE SWELL AIR SEA DIR/SP/G HT/PER HT/PER/DIR (UTC) (F) (DEG/KT/KT) (MB) (FT/S) (FT/S/D) BUOY 41004 1350 78 84 250/ 19/ 25 1013.4R 4/ 5 2/ 8 BUOY 41008 1350 81 83 230/ 10/ 12 1014.1R 2/ 4 2/120/ 7 FOLLY BEACH CMAN 1400 80 160/ 12/ 13 1014.2R CAPERS NEARSHORE 1308 81 200/ 12/ 16 1014.0R FRIPP NEARSHORE 1300 76 180/ 10/ 10 1012.8R STATION/POSITION TIME TEMP WIND PRES WAVE SWELL AIR SEA DIR/SP/G HT/PER HT/PER/DIR (UTC) (F) (DEG/KT/KT) (MB) (FT/S) (FT/S/D) 5E ST. MARYS GA 1321 83 N/A 2/10 FRYING PAN BUOY 1350 83 84 320/ 8/ 10 1012.5F 3/ 8 3/140/ 8 BUOY 41025 1350 82 86 20/ 12/ 14 1011.4F 4/ 9 3/170/ 9 CAPE LOOKOUT NC 1300 82 320/ 6/ 7 1012.2R BUOY 41002 1350 83 81 220/ 21/ 25 1014.5R 9/ 8 BUOY 41010 1320 80 84 180/ 19/ 25 1016.5R ST AUGUSTINE FL 1400 83 82 230/ 8/ 10 1016.1R $$

USA.gov is the U.S. government's official web portal to all federal, state and local government web resources and services.